World > North America > United States > Iowa

Augusta, Iowa Regional Weather

Lat: 40.75N, Lon: 91.28W
Wx Zone: IAZ099Web Search
Augusta Weather Warning NWS WEATHER ALERT FOR THE AUGUSTA, IA AREA - Issued: 341 AM CDT Sun May 9 2021 Augusta Weather Warning  

Helpful Tip: Type the letters wx in the search engine next time you need to find us.

Feedback


°F Click to change Augusta hourly weather to Imperial units.Click to change Augusta hourly weather to Metric units. °C
Augusta Weather Map
UTC Time: 5/9/2021, 17:25
Your Time:

Augusta, IA Regional Weather

Expires:202105091800;;848552
ASUS43 KDMX 091706
RWRIA 

WEATHER ROUNDUP FOR IOWA
NATIONAL WEATHER SERVICE DES MOINES IA
1200 PM CDT SUN MAY 09 2021

NOTE: "FAIR" INDICATES FEW OR NO CLOUDS BELOW 12,000 FEET WITH NO
SIGNIFICANT WEATHER AND/OR OBSTRUCTIONS TO VISIBILITY.

* - THESE STATIONS ARE NOT NWS STATIONS...THUS NOT UNDER NWS
QUALITY CONTROL.  THEY ALSO DO NOT REPORT WEATHER SUCH 
AS PRECIPITATION OR FOG.  


IAZ062-063-075>077-085>089-095>099-091800-
   SOUTHEAST IOWA
  
CITY           SKY/WX    TMP DP  RH WIND       PRES   REMARKS
BURLINGTON     CLOUDY    45  39  79 N17       29.96R                  
FAIRFIELD *    PTSUNNY   48  46  93 NE15G21   29.99R                  
FORT MADISON * CLOUDY    46  43  87 NE15G22   29.96R                  
KEOKUK *       CLOUDY    46  43  87 N9G17     29.95R                  
OSKALOOSA *    FAIR      52  42  68 NE14      30.01R                  
OTTUMWA        PTSUNNY   49  39  68 N13       30.00R                  
WASHINGTON *   PTSUNNY   48  48 100 NE16      29.98R                  
$$

ABBREVIATIONS USED IN REMARKS
   TC - TEMPERATURES IN CELSIUS
  WCI - WIND CHILL INDEX
   HX - HEAT INDEX
  VSB - VISIBILITY  
$$

  

SKY/WX - Weather  TMP - Temperature  DP - Dew Point  RH - Relative Humidity
WIND - Wind Direction/Speed PRES - Barometric Pressure VSB - Visibility
WCI - Wind Chill Index E13G22 Wind - East Wind 13 mph/Gusts of 22 mph